www.pogodaiklimat.ru

Погода и климат >> Архив погоды >> Папуа Новая Гвинея >> Порт-Морсби


ПОГОДА в Порт-Морсби

  • Прогноз погоды в Порт-Морсби
  • Монитор погоды в Порт-Морсби

АРХИВ ПОГОДЫ в Порт-Морсби

Время (UTC), дата Ветер
(напр.,м/с)
 
Видим.   Явления Облачность Т
(С)
Тd
(С)
f
(%)
Тe
(С)
Тes
(С)
Комфортность P
(гПа)
Po
(гПа)
Тmin
(С)
Tmax
(С)
R
(мм)
R24
(мм)
S
(см)
12 11.08 штиль 0 15 км слаб. дождь {морось} 10/5 300 м
[Sc As op]
+23.3 +22.9 98 +33 +33 очень
душно
1013.3 1007.5
15 11.08 штиль 0 15 км слаб. морось {дождь} 10/5 300 м
[Sc As op]
+23.1 +22.7 98 +32 +32 очень
душно
1011.5 1005.7
18 11.08 штиль 0 15 км слаб. морось {дождь} 10/6 200 м
[Sc As op]
+23.0 +22.9 99 +32 +32 очень
душно
1010.7 1004.9
21 11.08 штиль 0 25 км {морось} 9/6 200 м
[Sc Ac trans]
+23.1 +22.9 99 +32 +32 очень
душно
1012.6 1006.8
00 12.08 штиль 0 30 км {морось} 8/8 200 м
[St Ac lent]
+26.5 +22.0 76 +34 +38 очень
душно
1014.0 1008.2 192
03 12.08 Ю 6 25 км 9/9 300 м
[Sc Ac trans]
+27.0 +23.0 79 +36 +37 очень
душно
1012.1 1006.3
06 12.08 Ю 4 25 км 9/4 300 м
[Cu hum Ac trans Ci fib]
+27.1 +21.9 73 +35 +36 очень
душно
1010.4 1004.6
09 12.08 ЮВ 6 25 км 8/5 300 м
[Sc Ac trans]
+25.0 +21.9 83 +32 +32 очень
душно
1012.2 1006.4
12 12.08 Ю 4 25 км 9/9 300 м
[Sc]
+24.5 +22.1 86 +32 +32 очень
душно
1014.2 1008.4
15 12.08 ЮВ 3 20 км 10/9 300 м
[St Ac As]
+24.2 +22.1 88 +31 +31 очень
душно
1013.0 1007.2
18 12.08 Ю 2 20 км 10/9 300 м
[St Ac As]
+23.5 +22.3 93 +31 +31 очень
душно
1011.8 1006.0
21 12.08 Ю 4 25 км 10/9 300 м
[St Ac As]
+23.9 +21.9 89 +31 +31 очень
душно
1013.1 1007.3
09 13.08 Ю 7 10 км слаб. дождь {морось} 10/8 200 м
[Frnb As op]
+23.4 +23.4 100 +33 +33 очень
душно
1013.0 1007.2
12 13.08 Ю 3 15 км 9/8 200 м
[Frnb As op]
+23.9 +21.8 88 +31 +31 очень
душно
1014.7 1008.9 0.0
15 13.08 ЮВ 6 20 км 4/3 300 м
[Sc Ac trans]
+24.1 +21.5 85 +31 +31 очень
душно
1013.0 1007.2
21 13.08 Ю 3 25 км 9/9 300 м
[Cu hum]
+25.4 +22.3 83 +33 +33 очень
душно
1013.0 1007.2
03 14.08 ЮВ 3 30 км 8/5 300 м
[Cu med, cong]
+29.9 +22.8 66 +40 +45 очень
душно
1011.9 1006.1
06 14.08 Ю 3 30 км мгла 6/6 300 м
[Cu Sc]
+29.1 +23.2 71 +39 +41 очень
душно
1009.8 1004.0
09 14.08 Ю 6 20 км {морось} 9/6 1000 м
[Sc Ac trans Ci fib]
+26.6 +22.8 80 +35 +35 очень
душно
1011.8 1006.0
12 14.08 Ю 3 20 км {морось} 6/3 1000 м
[Sc Ac trans Ci fib]
+25.4 +23.0 87 +34 +34 очень
душно
1012.9 1007.1
15 14.08 штиль 0 20 км 3/3 1000 м
[Sc]
+24.1 +22.8 92 +32 +32 очень
душно
1012.2 1006.4
21 14.08 штиль 0 25 км 9/9 200 м
[Sc]
+24.1 +22.8 92 +32 +32 очень
душно
1013.5 1007.7
00 15.08 ЮВ 2 30 км 4/4 300 м
[Cu med, cong]
+28.0 +21.8 69 +36 +45 очень
душно
1014.2 1008.4
06 15.08 Ю 4 30 км 9/9 600 м
[]
+28.4 +23.9 77
09 15.08 Ю 7 20 км 9/1 1000 м
[Sc]
+26.2 +23.4 85 +36 +36 очень
душно
1011.6 1005.8
15 15.08 Ю 3 20 км 9/3 600 м
[Sc Ac trans]
+25.5 +22.9 86 +34 +34 очень
душно
1011.5 1005.7
18 15.08 штиль 0 20 км 9/4 600 м
[Sc Ac As]
+24.5 +22.7 90 +32 +32 очень
душно
1010.3 1004.5
21 15.08 25 км 10/8 600 м
[Sc Ac As]
+24.9 +22.8 88 1011.6 1005.8
03 16.08 ЮВ 5 30 км 6/4 300 м
[Cu med, cong Ci]
+30.0 +23.2 67 +40 +45 очень
душно
1010.9 1005.1
09 16.08 ЮВ 7 20 км 8/4 300 м
[Sc Ci]
+26.5 +23.0 81 +35 +35 очень
душно
1010.3 1004.5
15 16.08 Ю 5 20 км 4/4 1000 м
[Sc]
+25.4 +22.7 85 +33 +33 очень
душно
1011.1 1005.3
18 16.08 20 км 8/8 1000 м
[Sc]
+24.4 +22.6 90 1010.3 1004.5
21 16.08 штиль 0 30 км 9/5 100 м
[Sc Ac cast Ci]
+23.7 +21.9 90 +31 +31 очень
душно
1011.4 1005.4
03 17.08 ЮВ 4 30 км 6/4 600 м
[Cu hum Ci]
+30.5 +23.3 65 +41 +48 опасность
перегрева
1009.6 1003.8
06 17.08 ЮВ 7 20 км 8/8 300 м
[Cu med, cong Ac und Ci]
+27.8 +23.2 76 +37 +38 очень
душно
1008.5 1002.7
09 17.08 Ю 9 20 км 4/3 1000 м
[Sc Ac trans]
+25.5 +22.5 83 +33 +33 очень
душно
1010.5 1004.7
15 17.08 Ю 3 25 км 4/4 300 м
[Sc]
+24.5 +22.6 89 +32 +32 очень
душно
1011.8 1006.0
21 17.08 25 км 8/4 600 м
[Cu hum Ci]
+24.4 +22.1 87 1011.8 1006.0
00 18.08 ЮВ 3 25 км 5/1 300 м
[Cu hum Ci]
+28.1 +21.3 67 +36 +45 очень
душно
1012.9 1007.1
03 18.08 Ю 6 30 км 4/4 300 м
[Cu hum Ci]
+29.8 +23.2 68 +40 +44 очень
душно
1010.6 1004.8
06 18.08 ЮВ 7 25 км 8/8 600 м
[Sc diur, vesp Ac cuf Ci]
+28.1 +22.6 72 1009.1 1003.3
09 18.08 ЮВ 8 20 км 9/4 600 м
[Sc Ac As]
+25.5 +21.9 81 +33 +33 очень
душно
1010.6 1004.8

 

Местоположение метеостанции Порт-Морсби (Папуа Новая Гвинея): широта -9.38 долгота 147.21 высота над уровнем моря 48 м.

В архиве по умолчанию представлена погода в Порт-Морсби за последнюю неделю. Архивные данные за месяц целиком и за предыдущие месяцы, начиная с января 2011 года, Вы можете получить, выбрав интересующий диапазон дат из раскрывающегося списка и нажав кнопку "Ввод!".


*Определитесь, кто Вы:
робот инопланетянин человек

Внимание! Время в таблицах - всемирное. Для получения местного времени необходимо прибавить поправку, которая равна 10 ч.

Смотрите также архив погоды в соседних городах и на ближайших метеорологических станциях:

Погода в Надзабе (Папуа Новая Гвинея) (317 км)
Погода в Герни (Папуа Новая Гвинея) (357 км)
Погода на Острове Коконат (Квинсленд, Австралия) (460 км)
Погода на Острове Хорн (Квинсленд, Австралия) (556 км)
Погода в Аэропорту Локхарт (Квинсленд, Австралия) (570 км)
Погода на Мисиме (Папуа Новая Гвинея) (632 км)
Погода на Мысе Флэттери (Квинсленд, Австралия) (655 км)
Погода в Коэн аэропорту (Квинсленд, Австралия) (661 км)
Погода на Базе ВВС Scherger (Квинсленд, Австралия) (665 км)
Погода на Бугенвильском рифе (Квинсленд, Австралия) (681 км)

Пояснения к столбцам:

Ветер - указаны скорость ветра в м/с - средняя за 10 мин, порывы в срок и между сроками (в фигурных скобках) и направление, откуда дует ветер: С - северный, СВ - северо-восточный, В - восточный, ЮВ - юго-восточный, Ю - южный, ЮЗ - юго-западный, З - западный, СЗ - северо-западный.
Видимость - горизонтальная дальность видимости в метрах или километрах. При видимости от 1 до 10 км при отсутствии осадков обычно наблюдается дымка, при ухудшении видимости до 1 км и менее - туман. В сухую погоду видимость может ухудшаться дымом, пылью или мглою.
Явления - указаны атмосферные явления, наблюдавшиеся в срок или в последний час перед сроком; фигурными скобками обозначены явления, наблюдавшиеся между сроками (за 1-3 часа до срока); квадратными скобками обозначены град или гололедные отложения с указанием их диаметра в мм.
Облачность - указаны через наклонную черту общая и нижняя облачность в баллах и высота нижней границы облаков в метрах; квадратными скобками обозначены формы облаков: Ci - перистые, Cs - перисто-слоистые, Cc - перисто-кучевые, Ac - высококучевые, As - высокослоистые, Sc - слоисто-кучевые, Ns - слоисто-дождевые, Cu - кучевые, Cb - кучево-дождевые. Подробнее классификацию облаков см. в Атласе облаков (PDF).
T - Температура воздуха - температура, измеренная на высоте 2 м над землей.
Td - Температура точки росы - температура, при понижении до которой содержащийся в воздухе водяной пар достигнет насыщения.
f - Относительная влажность воздуха - влажноcть воздуха, измеренная на высоте 2 м над землей.
Te - Эффективная температура - температура, которую ощущает одетый по сезону человек в тени. Характеристика душности погоды. При расчете учитывается влияние влажности воздуха и скорости ветра на теплоощущения человека.
Tes - Эффективная температура на солнце - температура, которую ощущает человек, с поправкой на солнечный нагрев. Характеристика знойности погоды. Зависит от высоты солнца над горизонтом, облачности и скорости ветра. Ночью, в пасмурную погоду, а также при ветре 12 м/с и более поправка равна нулю.
P - Атмосферное давление - приведенное к уровню моря атмосферное давление.
Po - Атмосферное давление - измеренное на уровне метеостанции атмосферное давление.
Tmin - Минимальная температура - минимум температуры воздуха на высоте 2 м над землей.
Tmax - Максимальная температура - максимум температуры воздуха на высоте 2 м над землей.
R - Количество осадков - Количество выпавших осадков за период времени, мм. При наведении курсора мыши на число - период времени, за который выпало указанное количество осадков.
R24 - Количество осадков - Количество выпавших осадков за 24 часа, мм.
S - Снежный покров - Высота снежного покрова, см. При наведении курсора мыши на число - состояние снежного покрова и степень покрытия местности в баллах.